Kill Devil Hills, NC

2:00 AM EDT on September 27, 2016 (GMT -0400)
First Flight

Weather History for KFFA - November, 2013

Change the Weather History Date:

Wednesday, November 13, 2013

  Actual Average (KMQI) Record (KMQI)
Temperature  
Mean Temperature 36 °F -  
Max Temperature 39 °F 59 °F 74 °F (1985)
Min Temperature 34 °F 47 °F 34 °F (1976)
Degree Days  
Heating Degree Days 28    
Moisture  
Dew Point 22 °F    
Average Humidity 53    
Maximum Humidity 69    
Minimum Humidity 38    
Precipitation  
Precipitation 0.00 in - - ()
Sea Level Pressure  
Sea Level Pressure 30.39 in    
Wind  
Wind Speed 12 mph (NW)    
Max Wind Speed 18 mph    
Max Gust Speed 31 mph    
Visibility 10 miles    
Events      
Averages and records for this station are not official NWS values.
T = Trace of Precipitation, MM = Missing Value Source: NWS Daily Summary

Daily Weather History Graph

Daily Weather History Graph

Search for Another Location

Airport or City:

Trip Planner

Search our weather history database for the weather conditions in past years. The results will help you decide how hot, cold, wet, or windy it might be!

Date:

Astronomy

Nov. 13, 2013 Rise Set
Actual Time 6:37 AM EST 4:56 PM EST
Civil Twilight 6:10 AM EST 5:23 PM EST
Nautical Twilight 5:39 AM EST 5:54 PM EST
Astronomical Twilight 5:08 AM EST 6:24 PM EST
Moon 2:36 PM EST (11/13) 2:35 AM EST (11/13)
Length of Visible Light 11h 13m
Length of Day
10h 18m
Waxing Gibbous, 84% of the Moon is Illuminated
Nov 13
Waxing Gibbous
Nov 17
Full
Nov 25
Last Quarter
Dec 2
New
Dec 9
First Quarter

Hourly Weather History & Observations

Time (EST) Temp. Windchill Dew Point Humidity Pressure Visibility Wind Dir Wind Speed Gust Speed Precip Events Conditions
12:15 AM 38.3 °F 29.7 °F 24.4 °F 57% 30.30 in 10.0 mi North 15.0 mph 26.5 mph N/A   Mostly Cloudy
12:35 AM 38.5 °F 28.9 °F 21.6 °F 51% 30.29 in 10.0 mi North 18.4 mph 27.6 mph N/A   Overcast
12:55 AM 39.2 °F 30.8 °F 19.4 °F 45% 30.29 in 10.0 mi North 15.0 mph 25.3 mph N/A   Mostly Cloudy
1:15 AM 39.6 °F 30.3 °F 18.0 °F 42% 30.28 in 10.0 mi North 18.4 mph 31.1 mph N/A   Mostly Cloudy
1:35 AM 39.7 °F 31.9 °F 18.7 °F 43% 30.29 in 10.0 mi North 13.8 mph 26.5 mph N/A   Mostly Cloudy
1:55 AM 39.6 °F 31.7 °F 18.5 °F 43% 30.29 in 10.0 mi North 13.8 mph 25.3 mph N/A   Mostly Cloudy
2:15 AM 39.2 °F 30.8 °F 15.4 °F 38% 30.29 in 10.0 mi North 15.0 mph 24.2 mph N/A   Scattered Clouds
2:35 AM 39.4 °F 32.3 °F 16.7 °F 40% 30.29 in 10.0 mi North 11.5 mph 26.5 mph N/A   Scattered Clouds
2:55 AM 39.2 °F 31.6 °F 18.1 °F 43% 30.29 in 10.0 mi North 12.7 mph 25.3 mph N/A   Mostly Cloudy
3:15 AM 39.0 °F 31.0 °F 18.9 °F 44% 30.29 in 10.0 mi North 13.8 mph 24.2 mph N/A   Overcast
3:35 AM 38.7 °F 32.4 °F 19.0 °F 45% 30.29 in 10.0 mi North 9.2 mph 23.0 mph N/A   Overcast
3:55 AM 38.7 °F 30.1 °F 18.7 °F 45% 30.30 in 10.0 mi North 15.0 mph 23.0 mph N/A   Mostly Cloudy
4:15 AM 38.5 °F 30.3 °F 18.5 °F 45% 30.30 in 10.0 mi North 13.8 mph 28.8 mph N/A   Mostly Cloudy
4:35 AM 38.7 °F 30.9 °F 19.4 °F 46% 30.31 in 10.0 mi North 12.7 mph 24.2 mph N/A   Overcast
4:55 AM 38.3 °F 31.4 °F 17.6 °F 43% 30.31 in 10.0 mi NNW 10.4 mph 25.3 mph N/A   Mostly Cloudy
5:15 AM 37.9 °F 30.0 °F 16.3 °F 42% 30.32 in 10.0 mi North 12.7 mph 26.5 mph N/A   Scattered Clouds
5:35 AM 37.6 °F 31.0 °F 21.4 °F 52% 30.33 in 10.0 mi NNW 9.2 mph 19.6 mph N/A   Mostly Cloudy
5:55 AM 36.7 °F 28.9 °F 24.3 °F 61% 30.33 in 10.0 mi NW 11.5 mph 23.0 mph N/A   Overcast
6:15 AM 36.3 °F 27.5 °F 25.0 °F 63% 30.34 in 10.0 mi NNW 13.8 mph 20.7 mph N/A   Mostly Cloudy
6:35 AM 35.8 °F 27.8 °F 25.5 °F 66% 30.35 in 10.0 mi NW 11.5 mph 19.6 mph N/A   Mostly Cloudy
6:55 AM 34.9 °F 26.6 °F 25.2 °F 68% 30.36 in 10.0 mi NW 11.5 mph 20.7 mph N/A   Mostly Cloudy
7:15 AM 34.7 °F 25.9 °F 25.3 °F 69% 30.36 in 10.0 mi NW 12.7 mph 19.6 mph N/A   Scattered Clouds
7:35 AM 34.9 °F 27.1 °F 25.5 °F 69% 30.37 in 10.0 mi NW 10.4 mph 20.7 mph N/A   Scattered Clouds
7:55 AM 34.7 °F 25.9 °F 25.5 °F 69% 30.37 in 10.0 mi NW 12.7 mph 18.4 mph N/A   Clear
8:15 AM 35.4 °F 26.8 °F 25.2 °F 66% 30.38 in 10.0 mi NW 12.7 mph 24.2 mph N/A   Scattered Clouds
8:35 AM 36.0 °F 28.5 °F 25.0 °F 64% 30.39 in 10.0 mi NW 10.4 mph 24.2 mph N/A   Scattered Clouds
8:55 AM 36.3 °F 27.5 °F 25.0 °F 63% 30.39 in 10.0 mi NW 13.8 mph 24.2 mph N/A   Mostly Cloudy
9:15 AM 36.7 °F 28.0 °F 24.8 °F 62% 30.40 in 10.0 mi NW 13.8 mph 23.0 mph N/A   Mostly Cloudy
9:35 AM 36.9 °F 28.2 °F 25.0 °F 62% 30.40 in 10.0 mi NW 13.8 mph 20.7 mph N/A   Overcast
9:55 AM 37.4 °F 31.4 °F 24.8 °F 60% 30.41 in 10.0 mi NW 8.1 mph 28.8 mph N/A   Mostly Cloudy
10:15 AM 37.9 °F 28.5 °F 24.4 °F 58% 30.41 in 10.0 mi NW 17.3 mph 24.2 mph N/A   Mostly Cloudy
10:35 AM 37.9 °F 29.6 °F 23.9 °F 57% 30.42 in 10.0 mi NW 13.8 mph 25.3 mph N/A   Overcast
10:55 AM 37.4 °F 29.3 °F 23.5 °F 57% 30.42 in 10.0 mi NNW 12.7 mph 26.5 mph N/A   Overcast
11:15 AM 37.8 °F 28.3 °F 23.5 °F 57% 30.41 in 10.0 mi NNW 17.3 mph 25.3 mph N/A   Overcast
11:35 AM 37.6 °F 30.0 °F 22.3 °F 54% 30.40 in 10.0 mi NNW 11.5 mph 25.3 mph N/A   Overcast
11:55 AM 38.1 °F 30.2 °F 22.1 °F 53% 30.40 in 10.0 mi NNW 12.7 mph 26.5 mph N/A   Overcast
12:15 PM 38.8 °F 33.2 °F 21.9 °F 51% 30.39 in 10.0 mi NNW 8.1 mph 18.4 mph N/A   Overcast
12:35 PM 38.5 °F 30.7 °F 21.7 °F 51% 30.39 in 10.0 mi NNW 12.7 mph 27.6 mph N/A   Overcast
12:55 PM 38.5 °F 29.9 °F 21.2 °F 50% 30.39 in 10.0 mi NNW 15.0 mph 24.2 mph N/A   Overcast
1:15 PM 38.1 °F 31.2 °F 21.2 °F 51% 30.39 in 10.0 mi NW 10.4 mph 18.4 mph N/A   Overcast
1:35 PM 37.9 °F 30.0 °F 21.0 °F 51% 30.39 in 10.0 mi NNW 12.7 mph 21.9 mph N/A   Overcast
1:55 PM 37.8 °F 30.2 °F 20.5 °F 50% 30.40 in 10.0 mi NW 11.5 mph 24.2 mph N/A   Overcast
2:15 PM 38.5 °F 31.6 °F 20.7 °F 49% 30.40 in 10.0 mi NW 10.4 mph 20.7 mph N/A   Overcast
2:35 PM 38.5 °F 31.6 °F 21.2 °F 50% 30.40 in 10.0 mi NW 10.4 mph 19.6 mph N/A   Overcast
2:55 PM 38.8 °F 32.6 °F 21.7 °F 50% 30.40 in 10.0 mi NNW 9.2 mph 18.4 mph N/A   Overcast
3:15 PM 39.7 °F 32.3 °F 20.7 °F 46% 30.40 in 10.0 mi NW 12.7 mph 19.6 mph N/A   Mostly Cloudy
3:35 PM 39.7 °F 32.3 °F 19.9 °F 45% 30.40 in 10.0 mi NW 12.7 mph 18.4 mph N/A   Scattered Clouds
3:55 PM 39.2 °F 33.0 °F 19.9 °F 46% 30.41 in 10.0 mi NW 9.2 mph 19.6 mph N/A   Scattered Clouds
4:15 PM 38.7 °F 32.4 °F 20.5 °F 48% 30.41 in 10.0 mi NW 9.2 mph 17.3 mph N/A   Scattered Clouds
4:35 PM 37.9 °F 30.5 °F 20.3 °F 49% 30.42 in 10.0 mi NW 11.5 mph 18.4 mph N/A   Scattered Clouds
4:55 PM 37.6 °F 31.0 °F 20.7 °F 51% 30.43 in 10.0 mi NW 9.2 mph - N/A   Scattered Clouds
5:15 PM 37.0 °F 31.0 °F 20.5 °F 51% 30.43 in 10.0 mi NW 8.1 mph - N/A   Clear
5:35 PM 37.0 °F 31.0 °F 19.6 °F 49% 30.44 in 10.0 mi NW 8.1 mph - N/A   Clear
5:55 PM 37.0 °F 32.4 °F 19.9 °F 50% 30.44 in 10.0 mi NW 5.8 mph - N/A   Clear
6:15 PM 36.9 °F 31.4 °F 20.3 °F 51% 30.44 in 10.0 mi NW 6.9 mph - N/A   Clear
6:35 PM 36.9 °F 32.2 °F 20.1 °F 51% 30.45 in 10.0 mi NNW 5.8 mph - N/A   Clear
6:55 PM 36.7 °F 32.0 °F 20.7 °F 52% 30.45 in 10.0 mi NNW 5.8 mph - N/A   Clear
7:15 PM 36.5 °F 32.7 °F 22.6 °F 57% 30.45 in 10.0 mi WNW 4.6 mph - N/A   Clear
7:35 PM 36.3 °F 31.6 °F 23.5 °F 60% 30.45 in 10.0 mi NW 5.8 mph - N/A   Clear
7:55 PM 36.7 °F 32.0 °F 23.2 °F 58% 30.45 in 10.0 mi WNW 5.8 mph - N/A   Clear
8:15 PM 36.7 °F 32.9 °F 23.2 °F 58% 30.45 in 10.0 mi WNW 4.6 mph - N/A   Clear
8:35 PM 36.7 °F 32.9 °F 23.0 °F 58% 30.45 in 10.0 mi NW 4.6 mph - N/A   Clear
8:55 PM 36.5 °F 33.9 °F 22.3 °F 56% 30.45 in 10.0 mi NW 3.5 mph - N/A   Clear
9:15 PM 36.9 °F 34.3 °F 21.6 °F 54% 30.45 in 10.0 mi NW 3.5 mph - N/A   Clear
9:35 PM 36.7 °F 32.9 °F 21.9 °F 55% 30.45 in 10.0 mi NW 4.6 mph - N/A   Clear
9:55 PM 36.7 °F 34.1 °F 22.5 °F 56% 30.44 in 10.0 mi NW 3.5 mph - N/A   Clear
10:15 PM 36.7 °F 32.9 °F 23.2 °F 58% 30.44 in 10.0 mi NW 4.6 mph - N/A   Clear
10:35 PM 36.3 °F 32.5 °F 23.0 °F 59% 30.45 in 10.0 mi WNW 4.6 mph - N/A   Clear
10:55 PM 36.5 °F 33.9 °F 22.5 °F 57% 30.45 in 10.0 mi WNW 3.5 mph - N/A   Clear
11:15 PM 36.5 °F 32.7 °F 22.1 °F 56% 30.44 in 10.0 mi WNW 4.6 mph - N/A   Clear
11:35 PM 36.7 °F 34.1 °F 22.5 °F 56% 30.44 in 10.0 mi WNW 3.5 mph - N/A   Clear
11:55 PM 36.3 °F 33.7 °F 22.1 °F 56% 30.43 in 10.0 mi WNW 3.5 mph - N/A   Clear